Weather reports worldwide

Advertisment
Villacoublay, France (7147): temperature & dewpoint: 02.07.2020 15:00:00 - 08.07.2020 15:00:00 (CEST)Villacoublay, France (7147): temperature 5cm: 02.07.2020 15:00:00 - 08.07.2020 15:00:00 (CEST)Villacoublay, France (7147): wind speed & gusts: 02.07.2020 15:00:00 - 08.07.2020 15:00:00 (CEST)Villacoublay, France (7147): wind direction: 02.07.2020 15:00:00 - 08.07.2020 15:00:00 (CEST)Villacoublay, France (7147): reduced air pressure: 02.07.2020 15:00:00 - 08.07.2020 15:00:00 (CEST)Villacoublay, France (7147): visibility: 02.07.2020 15:00:00 - 08.07.2020 15:00:00 (CEST)Villacoublay, France (7147): precipitation: 02.07.2020 15:00:00 - 08.07.2020 15:00:00 (CEST)
Date & Time tt [°C] td [°C] tt 5cm [°C] ff [km/h] ff [kn] fx [km/h] fx [kn] dd ppp [hPa] vv [km] rr [mm]
08.07.2020 15:00:00 25,2 13,7 28,6 20 11 35 19 W 1017,5 29 0,0
08.07.2020 14:00:00 24,8 13,4 28,3 23 13 41 22 W 1017,8 29 0,0
08.07.2020 13:00:00 24,0 13,5 29,7 20 11 37 20 W 1017,8 20 0,0
08.07.2020 12:00:00 22,6 13,1 24,4 15 8 35 19 WSW 1018,0 20 0,0
08.07.2020 11:00:00 20,7 11,9 22,2 20 11 36 19 W 1018,4 20 0,0
08.07.2020 10:00:00 18,7 10,0 18,8 12 6 20 11 WSW 1018,6 19 0,0
08.07.2020 09:00:00 16,2 8,7 16,1 11 6 18 10 WSW 1018,9 52 0,0
08.07.2020 08:00:00 13,7 10,3 12,8 9 5 19 10 WSW 1019,0 36 0,0
08.07.2020 07:00:00 12,3 9,8 7,6 9 5 13 7 WSW 1018,9 42 0,0
08.07.2020 06:00:00 12,0 9,4 7,1 5 3 8 5 SW 1018,8 40 0,0
08.07.2020 05:00:00 13,1 9,9 8,9 5 3 9 5 SW 1018,9 50 0,0
08.07.2020 04:00:00 13,6 9,8 9,9 8 4 12 7 W 1019,1 58 0,0
08.07.2020 03:00:00 14,1 9,5 11,6 8 5 16 9 NW 1019,5 60 0,0
08.07.2020 02:00:00 15,5 10,0 14,3 10 5 21 11 NNW 1019,9 60 0,0
08.07.2020 01:00:00 16,6 9,8 14,9 13 7 22 12 NNW 1020,0 60 0,0
08.07.2020 00:00:00 17,5 9,1 16,3 11 6 23 13 NNW 1019,8 60 0,0
07.07.2020 23:00:00 18,8 8,4 17,6 13 7 20 11 NNW 1019,5 60 0,0
07.07.2020 22:00:00 20,5 7,1 18,8 10 6 19 10 NNW 1019,0 60 0,0
07.07.2020 21:00:00 22,5 6,7 22,9 11 6 27 14 NNW 1018,6 56 0,0
07.07.2020 20:00:00 23,9 5,7 26,6 13 7 30 16 WNW 1018,6 50 0,0
07.07.2020 19:00:00 23,9 5,7 28,8 15 8 34 19 WNW 1018,9 54 0,0
07.07.2020 18:00:00 23,5 5,8 29,3 15 8 35 19 WSW 1019,3 58 0,0
07.07.2020 17:00:00 23,2 6,9 28,8 7 4 29 15 NNE 1019,9 60 0,0
07.07.2020 16:00:00 22,7 7,3 27,5 12 6 27 14 NW 1020,5 60 0,0
07.07.2020 15:00:00 22,1 6,7 29,3 10 6 28 15 WNW 1021,1 19 0,0
07.07.2020 14:00:00 21,3 7,1 21,5 8 4 29 16 W 1021,6 20 0,0
07.07.2020 13:00:00 19,4 6,5 21,8 11 6 26 14 N 1022,1 49 0,0
07.07.2020 12:00:00 18,7 7,2 20,1 6 4 22 12 SW 1022,5 21 0,0
07.07.2020 11:00:00 18,4 7,2 19,5 4 2 16 9 ESE 1022,7 20 0,0
07.07.2020 10:00:00 17,0 7,6 18,9 6 3 14 8 SW 1023,0 60 0,0
07.07.2020 09:00:00 16,1 10,0 17,5 2 1 9 5 N 1023,0 20 0,0
07.07.2020 08:00:00 13,4 10,0 11,1 5 3 11 6 WNW 1023,3 19 0,0
07.07.2020 07:00:00 10,1 8,4 5,2 3 1 6 4 W 1023,5 20 0,0
07.07.2020 06:00:00 9,9 7,7 2,9 4 2 6 3 W 1023,5 41 0,0
07.07.2020 05:00:00 9,9 7,7 3,3 2 1 6 3 WNW 1023,8 50 0,0
07.07.2020 04:00:00 10,5 7,6 5,4 4 2 9 5 S 1023,9 60 0,0
07.07.2020 03:00:00 11,7 7,6 9,6 7 4 13 7 N 1024,2 59 0,0
07.07.2020 02:00:00 12,2 7,5 10,3 7 4 14 7 NNW 1024,3 60 0,0
07.07.2020 01:00:00 13,0 7,4 11,0 8 4 16 9 NNW 1024,3 59 0,0
07.07.2020 00:00:00 13,8 7,1 11,5 9 5 18 10 NNW 1024,2 60 0,0
06.07.2020 23:00:00 14,3 6,9 11,0 10 5 21 11 NW 1024,2 60 0,0
06.07.2020 22:00:00 15,5 6,8 13,8 11 6 31 17 NW 1023,8 60 0,0
06.07.2020 21:00:00 18,0 6,5 18,9 13 7 34 18 NW 1023,1 57 0,0
06.07.2020 20:00:00 19,0 6,1 21,2 19 10 36 19 NW 1022,6 24 0,0
06.07.2020 19:00:00 20,5 6,1 22,4 22 12 36 19 WNW 1022,2 23 0,0
06.07.2020 18:00:00 20,8 5,6 21,6 22 12 39 21 NW 1022,0 26 0,0
06.07.2020 17:00:00 21,3 6,0 24,1 26 14 47 25 WNW 1021,7 28 0,0
06.07.2020 16:00:00 21,0 6,5 21,8 26 14 48 26 WNW 1021,7 34 0,0
06.07.2020 15:00:00 19,5 6,6 21,7 21 11 44 24 NW 1021,5 20 0,0
06.07.2020 14:00:00 20,2 7,2 21,4 23 13 40 22 W 1021,2 20 0,0
06.07.2020 13:00:00 19,5 7,6 20,3 24 13 44 24 WNW 1021,3 19 0,0
06.07.2020 12:00:00 18,0 7,1 18,7 19 10 45 25 WNW 1021,2 20 0,0
06.07.2020 11:00:00 17,3 8,2 17,6 21 12 42 23 WNW 1021,3 20 0,0
06.07.2020 10:00:00 15,2 8,4 16,9 23 13 42 23 WNW 1021,2 20 0,0
06.07.2020 09:00:00 14,3 9,1 14,6 16 9 29 16 W 1021,0 18 0,0
06.07.2020 08:00:00 12,4 9,0 11,9 17 9 30 16 W 1020,7 17 0,0
06.07.2020 07:00:00 11,0 8,6 9,9 14 7 26 14 W 1020,4 19 0,0
06.07.2020 06:00:00 10,8 8,7 9,3 14 7 26 14 W 1019,9 20 0,0
06.07.2020 05:00:00 10,8 8,4 9,7 15 8 33 18 W 1019,6 20 0,0
06.07.2020 04:00:00 11,5 8,4 10,3 19 10 34 19 W 1019,5 42 0,0
06.07.2020 03:00:00 12,3 7,8 11,3 22 12 41 22 W 1019,6 53 0,0
06.07.2020 02:00:00 13,2 7,6 12,2 24 13 43 23 W 1019,5 60 0,0
06.07.2020 01:00:00 14,5 10,1 13,7 25 14 41 22 WNW 1018,9 49 0,0
06.07.2020 00:00:00 16,9 12,2 16,0 22 12 38 21 WNW 1018,2 58 0,0
05.07.2020 23:00:00 18,0 13,3 17,3 21 11 48 26 WNW 1017,7 60 0,0
05.07.2020 22:00:00 19,0 14,5 18,4 26 14 45 24 WNW 1017,1 60 0,0
05.07.2020 21:00:00 21,4 16,4 21,2 18 10 41 22 WSW 1016,1 60 0,0
05.07.2020 20:00:00 22,1 16,8 22,0 21 12 41 22 WSW 1016,2 48 0,0
05.07.2020 19:00:00 22,6 17,1 20,5 25 13 42 23 WSW 1016,3 54 0,0
05.07.2020 18:00:00 21,4 17,2 19,6 19 10 44 24 WSW 1016,6 8 0,0
05.07.2020 17:00:00 22,1 16,8 22,4 24 13 45 25 W 1016,8 19 0,0
05.07.2020 16:00:00 23,5 16,3 24,4 29 15 45 24 W 1016,6 48 0,0
05.07.2020 15:00:00 22,4 16,0 23,6 19 11 40 21 SW 1016,9 60 0,0
05.07.2020 14:00:00 21,6 15,4 23,1 21 11 42 23 SW 1017,2 60 0,0
05.07.2020 13:00:00 21,3 15,4 23,4 21 11 39 21 SW 1017,5 60 0,0
05.07.2020 12:00:00 20,5 15,5 22,3 21 11 43 23 WSW 1017,9 57 0,0
05.07.2020 11:00:00 19,9 15,1 20,6 23 13 40 21 WSW 1017,9 60 0,0
05.07.2020 10:00:00 18,7 15,2 18,4 21 11 41 22 WSW 1018,1 60 0,0
05.07.2020 09:00:00 17,9 15,7 17,8 24 13 45 25 WSW 1017,6 50 0,0
05.07.2020 08:00:00 17,6 16,3 17,1 17 9 38 20 WSW 1017,0 20 0,0
05.07.2020 07:00:00 17,4 16,4 16,9 14 7 32 17 WSW 1017,0 19 0,0
05.07.2020 06:00:00 17,5 16,4 17,0 16 9 32 17 SW 1017,2 9 0,0
05.07.2020 05:00:00 17,5 16,4 17,0 14 8 34 19 SW 1017,3 29 0,0
05.07.2020 04:00:00 17,4 16,8 17,0 16 9 30 16 SW 1017,4 7 0,0
05.07.2020 03:00:00 17,6 16,8 17,2 14 8 34 19 SW 1017,9 4,2 0,0
05.07.2020 02:00:00 18,2 16,5 18,0 22 12 42 23 SW 1018,3 18 0,0
05.07.2020 01:00:00 18,7 15,9 18,6 18 10 42 23 SW 1018,4 10 0,0
05.07.2020 00:00:00 19,0 15,9 18,9 24 13 48 26 SW 1018,2 60 0,0
04.07.2020 23:00:00 19,5 15,6 19,3 19 11 47 25 SW 1018,0 60 0,0
04.07.2020 22:00:00 20,0 15,4 19,9 20 11 45 24 SW 1018,0 60 0,0
04.07.2020 21:00:00 20,5 15,3 20,6 22 12 43 23 SW 1017,9 60 0,0
04.07.2020 20:00:00 21,0 15,1 21,1 24 13 49 26 WSW 1018,2 57 0,0
04.07.2020 19:00:00 21,3 14,9 21,9 22 12 46 25 WSW 1018,0 46 0,0
04.07.2020 18:00:00 21,3 14,9 22,5 24 13 51 27 WSW 1018,3 56 0,0
04.07.2020 17:00:00 22,4 14,8 24,3 26 14 54 29 WSW 1018,3 39 0,0
04.07.2020 16:00:00 21,7 14,3 23,3 24 13 45 24 WSW 1018,6 46 0,0
04.07.2020 15:00:00 20,9 14,1 22,9 26 14 48 26 WSW 1018,6 35 0,0
04.07.2020 14:00:00 20,9 13,8 23,8 25 14 47 26 SSW 1018,5 31 0,0
04.07.2020 13:00:00 20,8 13,2 20,2 25 14 42 23 SW 1019,1 20 0,0
04.07.2020 12:00:00 19,2 12,7 20,9 21 11 44 24 SW 1019,3 20 0,0
04.07.2020 11:00:00 19,1 12,6 19,9 16 9 32 18 SW 1019,0 18 0,0
04.07.2020 10:00:00 17,2 11,9 17,2 13 7 37 20 SSW 1019,2 20 0,0
04.07.2020 09:00:00 15,3 11,1 15,2 17 9 33 18 SW 1019,5 46 0,0
04.07.2020 08:00:00 14,3 10,9 13,6 17 9 34 19 SW 1019,5 41 0,0
04.07.2020 07:00:00 13,4 10,4 12,4 17 9 29 16 SW 1019,6 53 0,0
04.07.2020 06:00:00 13,3 10,1 12,5 12 7 23 13 SW 1019,7 60 0,0
04.07.2020 05:00:00 13,8 10,0 12,9 13 7 29 16 WSW 1020,0 60 0,0
04.07.2020 04:00:00 14,3 10,1 12,7 13 7 24 13 WSW 1020,4 60 0,0
04.07.2020 03:00:00 14,1 9,5 11,7 10 5 16 9 WSW 1020,5 55 0,0
04.07.2020 02:00:00 14,7 9,1 9,2 10 5 17 9 WSW 1020,7 60 0,0
04.07.2020 01:00:00 15,6 8,8 9,8 6 3 12 7 SSW 1020,6 59 0,0
04.07.2020 00:00:00 16,3 9,0 10,7 6 4 13 7 SW 1020,6 56 0,0
03.07.2020 23:00:00 17,1 9,0 12,9 8 4 23 13 WSW 1020,4 60 0,0
03.07.2020 22:00:00 18,3 8,8 16,9 14 8 29 16 W 1019,9 60 0,0
03.07.2020 21:00:00 20,9 8,5 20,1 13 7 23 12 WSW 1019,5 60 0,0
03.07.2020 20:00:00 21,6 8,8 25,1 12 7 24 13 WSW 1019,3 60 0,0
03.07.2020 19:00:00 21,5 8,7 22,6 9 5 32 18 WSW 1019,6 58 0,0
03.07.2020 18:00:00 21,0 8,6 23,2 16 8 29 16 W 1020,1 59 0,0
03.07.2020 17:00:00 20,9 9,8 22,9 16 9 30 16 WNW 1020,3 59 0,0
03.07.2020 16:00:00 20,5 9,1 23,9 15 8 31 17 W 1020,5 41 0,0
03.07.2020 15:00:00 19,9 9,2 23,2 16 9 29 16 W 1020,7 38 0,0
03.07.2020 14:00:00 20,9 9,5 23,3 16 9 30 16 W 1020,8 60 0,0
03.07.2020 13:00:00 19,8 9,7 21,8 15 8 27 15 WSW 1020,9 20 0,0
03.07.2020 12:00:00 18,2 9,8 18,6 13 7 27 15 W 1021,0 59 0,0
03.07.2020 11:00:00 16,9 10,3 18,9 16 9 29 16 WNW 1021,1 37 0,0
03.07.2020 10:00:00 16,2 11,4 17,1 13 7 24 13 W 1021,1 30 0,0
03.07.2020 09:00:00 14,5 11,5 14,7 20 11 34 18 WNW 1021,2 20 0,0
03.07.2020 08:00:00 13,8 11,3 13,7 16 9 30 16 W 1020,7 20 0,0
03.07.2020 07:00:00 12,2 10,4 10,1 13 7 20 11 W 1020,4 20 0,0
03.07.2020 06:00:00 11,4 10,0 9,6 13 7 22 12 W 1020,2 43 0,0
03.07.2020 05:00:00 11,5 9,7 8,4 15 8 22 12 WNW 1019,9 55 0,0
03.07.2020 04:00:00 11,5 9,7 7,4 10 5 13 7 W 1019,7 57 0,0
03.07.2020 03:00:00 11,9 10,1 7,5 6 4 13 7 W 1019,7 46 0,0
03.07.2020 02:00:00 13,6 10,6 10,1 10 5 17 9 WNW 1019,3 59 0,0
03.07.2020 01:00:00 13,7 10,3 8,8 9 5 12 6 W 1019,1 55 0,0
03.07.2020 00:00:00 15,0 10,2 10,3 7 4 14 8 WNW 1018,5 53 0,0
02.07.2020 23:00:00 17,5 10,4 16,2 11 6 22 12 NW 1017,9 60 0,0
02.07.2020 22:00:00 17,0 10,4 15,8 9 5 18 10 W 1017,2 60 0,0
02.07.2020 21:00:00 18,1 10,0 17,8 12 6 27 15 W 1016,7 60 0,0
02.07.2020 20:00:00 20,1 9,9 21,3 16 8 26 14 WNW 1016,3 60 0,0
02.07.2020 19:00:00 19,7 10,4 21,1 14 8 35 19 NW 1015,9 51 0,0
02.07.2020 18:00:00 20,0 9,3 19,2 21 11 43 23 WNW 1015,7 60 0,0
02.07.2020 17:00:00 20,0 9,0 21,0 23 12 41 22 WNW 1015,4 56 0,0
02.07.2020 16:00:00 19,5 9,7 20,7 23 12 39 21 WNW 1015,2 56 0,0
02.07.2020 15:00:00 20,8 10,0 25,8 17 9 36 19 WSW 1014,7 25 0,0

tt = temperature
td = dewpoint
tt 5cm = temperature 5cm
ff = wind speed
fx = gusts
dd = wind direction
ppp = reduced air pressure
vv = visibility
rr = precipitation

Next stations